• Join FlightAware (Why Join?)
  • Login
  • US Flag 
01:25AM EDT


 

Airport Tracker/Info


-or-


 

Live Flight TrackerFlight Track Log ✈ JBU56 ✈ 25-Apr-2013 ✈ KJFK - KBTV

Flight Track Log - Related Links

Times and Time Zones

All times are in EDT time to prevent confusion due to time zone crossing. See the JBU56 flight status page for this flight to view local times or setup timezone preferences in your user account.

Time Position Orientation Groundspeed Altitude Reporting Facility
EDT Latitude Longitude Course Direction KTS MPH feet Rate Location/Type
09:54AM 40.6500 -73.8167 217° Southwest 161 185 1,300  Level New York TRACON
09:55AM 40.6000 -73.8667 217° Southwest 222 255 3,100 2,160 Climbing New York TRACON
09:56AM 40.5833 -73.8000 108° East 267 307 5,700 2,700 Climbing New York TRACON
09:57AM 40.6000 -73.7000 78° East 313 360 8,500 2,400 Climbing New York TRACON
09:58AM 40.6667 -73.6167 43° Northeast 325 374 10,500 1,680 Climbing New York TRACON
09:59AM 40.7992 -73.4847 37° Northeast 351 404 13,300 1,680 Climbing Boston Center
10:00AM 40.9000 -73.4094 29° Northeast 382 440 15,200 1,980 Climbing Boston Center
10:01AM 41.0314 -73.3811 North 410 472 17,300 1,800 Climbing Boston Center
10:02AM 41.1400 -73.3633 North 432 497 18,800 1,620 Climbing Boston Center
10:03AM 41.2714 -73.3458 North 449 517 20,600 1,080 Climbing Boston Center
10:04AM 41.4028 -73.3256 North 463 533 21,000 180 Climbing Boston Center
10:05AM 41.5264 -73.2553 23° Northeast 469 540 21,000  Level Boston Center
10:06AM 41.6536 -73.2153 13° North 469 540 21,000  Level Boston Center
10:07AM 41.7892 -73.2142 360° North 469 540 21,000  Level Boston Center
10:08AM 41.9247 -73.2103 North 480 552 21,000  Level Boston Center
10:09AM 42.0622 -73.2064 North 485 558 21,000  Level Boston Center
10:10AM 42.2103 -73.2053 360° North 485 558 21,000  Level Boston Center
10:11AM 42.3353 -73.1928 North 480 552 21,000  Level Boston Center
10:12AM 42.4708 -73.1917 360° North 485 558 21,000  Level Boston Center
10:13AM 42.6189 -73.1933 360° North 485 558 21,000  Level Boston Center
10:14AM 42.7542 -73.1922 360° North 480 552 21,000  Level Boston Center
10:15AM 42.8919 -73.1883 North 480 552 21,000  Level Boston Center
10:16AM 43.0272 -73.1869 360° North 480 552 21,000  Level Boston Center
10:17AM 43.1608 -73.1831 North 480 552 21,000  Level Boston Center
10:18AM 43.2878 -73.1817 360° North 469 540 21,000 -300 Level Boston Center
10:19AM 43.4131 -73.1775 North 454 522 20,500 -1,380 Descending Boston Center
10:20AM 43.5319 -73.1444 11° North 443 510 18,300 -2,280 Descending Boston Center
10:21AM 43.6447 -73.1058 14° North 423 487 16,000 -2,160 Descending Boston Center
10:22AM 43.7469 -73.0694 14° North 399 459 14,000 -2,100 Descending Boston Center
10:23AM 43.8494 -73.0361 13° North 377 434 11,900 -1,800 Descending Boston Center
10:24AM 43.9433 -73.0022 15° North 358 412 10,500 -1,380 Descending Boston Center
10:26AM 44.0372 -72.9714 13° North 306 352 8,900 -1,560 Descending Boston Center
10:27AM 44.1061 -72.9231 27° Northeast 276 318 7,100 -960 Descending Boston Center
10:28AM 44.1625 -72.8683 35° Northeast 263 303 7,000 -540 Descending Boston Center
10:29AM 44.2189 -72.8194 32° Northeast 251 289 6,100 -540 Descending Boston Center
10:30AM 44.2711 -72.8344 348° North 193 222 6,000 -420 Descending Boston Center
10:31AM 44.3064 -72.8897 312° West 181 208 5,300 -900 Descending Boston Center
10:32AM 44.3436 -72.9453 313° West 195 224 4,200 -1,140 Descending Boston Center
10:33AM 44.3786 -73.0036 310° West 195 224 3,100 -1,080 Descending Boston Center
10:34AM 44.4139 -73.0592 312° West 195 224 2,100 -960 Descending Boston Center
10:35AM 44.4406 -73.1058 309° West 158 182 1,100 -840 Descending Boston Center
10:36AM 44.4694 -73.1528 311° West 141 162 300 -420 Descending Boston Center
10:37AM 44.4903 -73.1850 312° West 128 147 300  Level Boston Center